TimeMDT,TemperatureF,Dew PointF,Humidity,Sea Level PressureIn,VisibilityMPH,Wind Direction,Wind SpeedMPH,Gust SpeedMPH,PrecipitationIn,Events,Conditions,WindDirDegrees,DateUTC
12:53 AM,60.1,48.0,64,29.76,10.0,SSE,13.8,-,N/A,,Clear,160,2013-06-10 06:53:00
1:53 AM,59.0,48.0,67,29.74,10.0,SSE,16.1,-,N/A,,Clear,160,2013-06-10 07:53:00
2:53 AM,57.9,46.9,67,29.73,10.0,SSE,17.3,24.2,N/A,,Clear,160,2013-06-10 08:53:00
3:53 AM,57.9,46.0,65,29.72,10.0,South,15.0,-,N/A,,Clear,170,2013-06-10 09:53:00
4:53 AM,57.9,45.0,62,29.70,10.0,South,17.3,-,N/A,,Clear,170,2013-06-10 10:53:00
5:53 AM,57.9,46.0,65,29.71,10.0,South,13.8,-,N/A,,Clear,170,2013-06-10 11:53:00
6:53 AM,60.1,46.0,60,29.71,10.0,South,15.0,20.7,N/A,,Clear,170,2013-06-10 12:53:00
7:53 AM,66.0,48.0,52,29.72,10.0,South,11.5,-,N/A,,Clear,180,2013-06-10 13:53:00
8:53 AM,73.9,48.9,41,29.73,10.0,South,8.1,-,N/A,,Clear,180,2013-06-10 14:53:00
9:53 AM,81.0,48.0,31,29.71,10.0,SSW,5.8,-,N/A,,Clear,210,2013-06-10 15:53:00
10:53 AM,89.1,44.1,21,29.69,10.0,Variable,4.6,-,N/A,,Clear,0,2013-06-10 16:53:00
11:53 AM,93.0,42.1,17,29.68,10.0,NW,10.4,-,N/A,,Clear,320,2013-06-10 17:53:00
12:53 PM,93.9,41.0,16,29.68,10.0,North,10.4,-,N/A,,Clear,350,2013-06-10 18:53:00
1:53 PM,93.9,42.1,17,29.67,10.0,Calm,Calm,-,N/A,,Clear,0,2013-06-10 19:53:00
2:53 PM,97.0,41.0,14,29.65,10.0,Calm,Calm,-,N/A,,Clear,0,2013-06-10 20:53:00
3:53 PM,95.0,42.1,16,29.64,10.0,Calm,Calm,-,N/A,,Clear,0,2013-06-10 21:53:00
4:53 PM,89.1,39.9,18,29.67,10.0,SW,28.8,38.0,N/A,,Clear,220,2013-06-10 22:53:00
5:53 PM,86.0,44.1,23,29.69,10.0,SSW,8.1,-,N/A,,Clear,200,2013-06-10 23:53:00
6:53 PM,89.1,37.9,16,29.72,10.0,NNW,9.2,26.5,N/A,,Scattered Clouds,330,2013-06-11 00:53:00
7:53 PM,80.1,45.0,29,29.68,10.0,NE,9.2,-,N/A,,Clear,50,2013-06-11 01:53:00
8:53 PM,75.0,50.0,41,29.68,10.0,NE,16.1,-,N/A,,Clear,50,2013-06-11 02:53:00
9:53 PM,71.1,59.0,66,29.73,10.0,Variable,3.5,-,N/A,,Clear,0,2013-06-11 03:53:00
10:53 PM,68.0,57.9,70,29.68,10.0,East,5.8,-,N/A,,Clear,90,2013-06-11 04:53:00
11:53 PM,64.0,57.9,80,29.67,10.0,SSE,9.2,-,N/A,,Clear,150,2013-06-11 05:53:00